This demonstration page uses our WeatherBlox Daily Observations layout. Learn more.

Left ArrowRight Arrow

40.92945, -100.16068

Hourly Observations for April 10, 2015

Temp ( °F °C ) Dew Point ( °F °C ) Humidity (%) Winds ( mph kmh ) Pressure ( in mb ) Visibility ( mi km ) Precip ( " mm )
12:15 am 00:15 Clear 35 1.7 30 -0.9 83 83 W 9 15 30.18 1022 10 16 N/A
12:35 am 00:35 Clear 36 2 31 -0.7 83 83 W 7 11 30.18 1022 10 16 N/A
12:55 am 00:55 Clear 34 1.3 30 -1 85 85 W 5 7 30.21 1023 10 16 N/A
1:15 am 01:15 Clear 33 0.8 30 -1.3 86 86 WNW 5 7 30.21 1023 10 16 N/A
1:35 am 01:35 Clear 32 0.2 29 -1.5 89 89 WNW 7 11 30.21 1023 10 16 N/A
1:55 am 01:55 Clear 32 undefined 29 -1.8 88 88 NW 7 11 30.21 1023 10 16 N/A
2:15 am 02:15 Clear 31 -0.5 29 -1.8 91 91 NW 7 11 30.21 1023 10 16 N/A
2:35 am 02:35 Clear 31 -0.5 29 -1.7 92 92 WNW 8 13 30.21 1023 10 16 N/A
2:55 am 02:55 Clear 31 -0.4 29 -1.8 90 90 WNW 6 9 30.21 1023 10 16 N/A
3:15 am 03:15 Clear 31 -0.5 29 -1.6 92 92 W 6 9 30.21 1023 10 16 N/A
3:35 am 03:35 Clear 30 -1.2 28 -2.5 91 91 WNW 6 9 30.21 1023 10 16 N/A
3:55 am 03:55 Clear 31 -0.8 28 -2.1 91 91 WNW 3 6 30.21 1023 10 16 N/A
4:15 am 04:15 Clear 31 -0.3 29 -1.9 89 89 WNW 3 6 30.21 1023 10 16 N/A
4:35 am 04:35 Clear 32 -0.1 28 -2.2 86 86 NW 6 9 30.21 1023 10 16 N/A
4:55 am 04:55 Clear 31 -0.3 28 -2.2 87 87 NW 5 7 30.21 1023 10 16 N/A
5:15 am 05:15 Clear 31 -0.8 28 -2.5 88 88 N N/A 30.21 1023 10 16 N/A
5:35 am 05:35 Clear 30 -1 27 -2.6 89 89 N N/A 30.21 1023 10 16 N/A
5:55 am 05:55 Clear 30 -1 27 -2.7 88 88 NW 3 6 30.21 1023 10 16 N/A
6:15 am 06:15 Clear 29 -1.7 26 -3.1 90 90 NNW 7 11 30.24 1024 10 16 N/A
6:35 am 06:35 Clear 29 -1.5 27 -2.8 91 91 NNW 7 11 30.21 1023 10 16 N/A
6:55 am 06:55 Clear 29 -1.4 27 -2.7 91 91 NW 9 15 30.21 1023 10 16 N/A
7:15 am 07:15 Sunny 29 -1.5 27 -3 90 90 NW 7 11 30.24 1024 10 16 N/A
7:35 am 07:35 Sunny 29 -1.5 27 -2.9 90 90 NW 7 11 30.24 1024 10 16 N/A
7:55 am 07:55 Sunny 30 -1 28 -2.3 91 91 WNW 5 7 30.24 1024 10 16 N/A
8:15 am 08:15 Sunny 32 undefined 30 -1.2 92 92 W 7 11 30.24 1024 10 16 N/A
8:35 am 08:35 Sunny 34 1 31 -0.5 90 90 W 8 13 30.24 1024 10 16 N/A
8:55 am 08:55 Sunny 36 2.3 32 0.2 86 86 W 7 11 30.27 1025 10 16 N/A
9:15 am 09:15 Sunny 39 3.8 33 0.8 81 81 WNW 9 15 30.24 1024 10 16 N/A
9:35 am 09:35 Sunny 42 5.3 35 1.7 78 78 WNW 8 13 30.24 1024 10 16 N/A
9:55 am 09:55 Sunny 44 6.8 36 2.4 74 74 NW 9 15 30.21 1023 10 16 N/A
10:15 am 10:15 Sunny 47 8.1 37 2.8 70 70 WNW 9 15 30.21 1023 10 16 N/A
10:35 am 10:35 Sunny 49 9.5 38 3.2 65 65 WNW 9 15 30.18 1022 10 16 N/A
10:55 am 10:55 Sunny 51 10.6 39 3.9 64 64 NW 8 13 30.18 1022 10 16 N/A
11:15 am 11:15 Sunny 53 11.9 40 4.7 62 62 NW 7 11 30.15 1021 10 16 N/A
11:35 am 11:35 Sunny 55 12.7 38 3.1 52 52 WNW 6 9 30.15 1021 10 16 N/A
11:55 am 11:55 Sunny 57 14 37 2.9 47 47 WNW 6 9 30.15 1021 10 16 N/A
12:15 pm 12:15 Sunny 60 15.3 35 1.4 39 39 WNW 7 11 30.12 1020 10 16 N/A
12:35 pm 12:35 Sunny 62 16.4 30 -1 31 31 SW 5 7 30.09 1019 10 16 N/A
12:55 pm 12:55 Sunny 62 16.8 32 -0.2 32 32 WSW 8 13 30.09 1019 10 16 N/A
1:15 pm 13:15 Sunny 63 17.1 32 -0.2 31 31 WSW 9 15 30.09 1019 10 16 N/A
1:35 pm 13:35 Sunny 62 16.9 30 -1.2 29 29 SW 6 9 30.09 1019 10 16 N/A
1:55 pm 13:55 Sunny 63 17 29 -1.7 28 28 SW 7 11 30.09 1019 10 16 N/A
2:15 pm 14:15 Sunny 63 17.2 28 -2.4 26 26 W 5 7 30.06 1018 10 16 N/A
2:35 pm 14:35 Sunny 64 17.9 29 -1.6 27 27 SW 6 9 30.03 1017 10 16 N/A
2:55 pm 14:55 Sunny 64 17.8 30 -1.3 27 27 SSW 12 19 30.03 1017 10 16 N/A
3:15 pm 15:15 Sunny 66 18.7 29 -1.4 26 26 S 14 22 30.03 1017 10 16 N/A
3:35 pm 15:35 Sunny 65 18.6 28 -2.5 24 24 S 10 17 30.00 1016 10 16 N/A
3:55 pm 15:55 Sunny 65 18.6 27 -2.7 24 24 SSW 9 15 30.00 1016 10 16 N/A
4:15 pm 16:15 Sunny 66 18.7 26 -3.1 23 23 S 9 15 30.00 1016 10 16 N/A
4:35 pm 16:35 Sunny 65 18.4 26 -3.1 23 23 N N/A 29.97 1015 10 16 N/A
4:55 pm 16:55 Sunny 66 18.7 27 -2.9 23 23 SSW 3 6 29.97 1015 10 16 N/A
5:15 pm 17:15 Sunny 65 18.6 28 -2.4 24 24 S 9 15 29.97 1015 10 16 N/A
5:35 pm 17:35 Sunny 65 18.6 28 -2.5 24 24 S 6 9 29.97 1015 10 16 N/A
5:55 pm 17:55 Sunny 66 18.8 29 -1.6 25 25 SSW 8 13 29.97 1015 10 16 N/A
6:15 pm 18:15 Sunny 66 18.7 27 -2.9 23 23 S 7 11 29.97 1015 10 16 N/A
6:35 pm 18:35 Sunny 66 18.7 27 -3 23 23 S 6 9 29.97 1015 10 16 N/A
6:55 pm 18:55 Sunny 64 18 29 -1.9 26 26 S 6 9 29.97 1015 10 16 N/A
7:15 pm 19:15 Sunny 62 16.4 32 undefined 33 33 S 7 11 30.00 1016 10 16 N/A
7:35 pm 19:35 Sunny 59 15.1 33 0.8 38 38 SSE 7 11 30.00 1016 10 16 N/A
7:55 pm 19:55 Sunny 58 14.4 35 1.7 42 42 SSE 7 11 30.00 1016 10 16 N/A
8:15 pm 20:15 Clear 57 13.9 32 0.2 39 39 SSE 8 13 30.00 1016 10 16 N/A
8:35 pm 20:35 Clear 54 12.4 33 0.8 45 45 SSE 7 11 30.03 1017 10 16 N/A
8:55 pm 20:55 Clear 53 11.5 33 0.7 48 48 SSE 8 13 30.03 1017 10 16 N/A
9:15 pm 21:15 Clear 53 11.6 33 0.6 47 47 SSE 8 13 30.03 1017 10 16 N/A
9:35 pm 21:35 Clear 52 11.1 33 0.4 48 48 SSE 8 13 30.03 1017 10 16 N/A
9:55 pm 21:55 Clear 49 9.3 34 1.2 57 57 S 7 11 30.06 1018 10 16 N/A
10:15 pm 22:15 Clear 48 8.7 34 0.9 58 58 S 8 13 30.09 1019 10 16 N/A
10:35 pm 22:35 Clear 48 9.1 33 0.3 54 54 S 9 15 30.09 1019 10 16 N/A
10:55 pm 22:55 Clear 49 9.5 32 -0.1 51 51 S 9 15 30.09 1019 10 16 N/A
11:15 pm 23:15 Clear 49 9.3 32 -0.2 52 52 S 10 17 30.06 1018 10 16 N/A
11:35 pm 23:35 Clear 48 9.1 31 -0.4 52 52 S 9 15 30.06 1018 10 16 N/A
11:55 pm 23:55 Clear 48 9.1 31 -0.8 50 50 S 10 17 30.06 1018 10 16 N/A

Powered by AerisWeather